sat.trackr.live / text

‹ back to catalog

STARLINK-5564

NORAD 56134 · 2023-046AU

PAYLOAD ACTIVE UNKNOWN

§ Identity

Operator
Country
US
Launch date
2023-03-29
Launch site
AFETR
Launch vehicle
Mass (kg)
RCS (m²)

Purposes: comms

External: N2YO · Heavens-Above · Gunter

§ Orbital elements

Epoch: 2026-05-25T04:38:24.320256Z

Period
94.27 min
Inclination
43.0063°
Eccentricity
0.0001444
Mean motion
15.27573240 rev/d
Perigee alt
482.1 km
Apogee alt
484.1 km
Semi-major
6,861.2 km
B*
6.7000e-6
RAAN
74.6545°
Arg perigee
272.9404°
Mean anomaly
87.1282°
Rev number
17,389

§ Raw data

STARLINK-55641 56134U 23046AU  26145.19333704 -.00000078  00000+0  67000-5 0  99952 56134  43.0063  74.6545 0001444 272.9404  87.1282 15.27573240173891

JSON: /api/v1/satellites/56134 · /tle

For live sub-satellite position, see the globe view (requires WebGL).

§ Visibility from observer

Set your observer location to see the next 7 days of passes ≥ 10°. The values pass through the URL so the page stays shareable.

No JS? Fill the form by hand. The geolocation button needs JavaScript.